This demonstration page uses our WeatherBlox Daily Observations layout. Learn more.

Left ArrowRight Arrow

Hourly Observations for September 23, 2015

Temp ( °F °C ) Dew Point ( °F °C ) Humidity (%) Winds ( mph kmh ) Pressure ( in mb ) Visibility ( mi km ) Precip ( " mm )
12:53 am 00:53 Clear 53 11.7 52 11.1 96 96 Calm 30.22 1023 9 14.48406 0 0
1:53 am 01:53 Clear 53 11.7 52 11.1 96 96 Calm 30.22 1023 9 14.48406 0 0
2:53 am 02:53 Clear 52 11.1 50 10 93 93 Calm 30.22 1023 7 11.26538 0 0
3:53 am 03:53 Clear 51 10.6 49 9.4 92 92 Calm 30.21 1023 10 16.0934 0 0
4:53 am 04:53 Clear with Mist and Fog 49 9.4 48 8.9 97 97 Calm 30.22 1023 6 9.65604 0 0
5:53 am 05:53 Clear with Mist and Fog 50 10 48 8.9 93 93 Calm 30.23 1024 5 8.0467 0 0
6:53 am 06:53 Clear with Mist and Fog 49 9.4 48 8.9 97 97 Calm 30.24 1024 5 8.0467 0 0
7:53 am 07:53 Sunny with Mist and Fog 50 10 48 8.9 93 93 Calm 30.27 1025 6 9.65604 0 0
8:53 am 08:53 Sunny 59 15 54 12.2 83 83 Calm 30.28 1025 10 16.0934 0 0
9:53 am 09:53 Sunny 66 18.9 57 13.9 73 73 Calm 30.29 1026 10 16.0934 0 0
10:53 am 10:53 Sunny 72 22.2 57 13.9 59 59 Calm 30.28 1025 10 16.0934 0 0
11:53 am 11:53 Sunny 76 24.4 56 13.3 50 50 E 3 6 30.27 1025 10 16.0934 0 0.0254
12:53 pm 12:53 Sunny 80 26.7 52 11.1 38 38 NE 8 13 30.25 1025 10 16.0934 0 0
1:53 pm 13:53 Sunny 81 27.2 50 10 34 34 E 6 9 30.23 1024 10 16.0934 0 0
3:53 pm 15:53 Sunny 84 28.9 50 10 31 31 NE 12 19 30.19 1022 10 16.0934 0 0
4:53 pm 16:53 Sunny 83 28.3 50 10 32 32 E 9 15 30.18 1022 10 16.0934 0 0
5:53 pm 17:53 Sunny 83 28.3 50 10 32 32 ENE 8 13 30.17 1022 10 16.0934 0 0
6:53 pm 18:53 Sunny 79 26.1 51 10.6 38 38 ENE 6 9 30.17 1022 10 16.0934 0 0
7:53 pm 19:53 Clear 67 19.4 54 12.2 63 63 NE 5 7 30.18 1022 10 16.0934 0 0
8:53 pm 20:53 Clear 62 16.7 55 12.8 78 78 ENE 3 6 30.19 1022 10 16.0934 0 0
9:53 pm 21:53 Clear 59 15 54 12.2 83 83 ENE 5 7 30.2 1023 10 16.0934 0 0
10:53 pm 22:53 Clear 58 14.4 54 12.2 87 87 E 3 6 30.2 1023 10 16.0934 0 0
11:53 pm 23:53 Clear 56 13.3 53 11.7 90 90 Calm 30.2 1023 10 16.0934 0 0

Powered by AerisWeather